KAL434 WADD-RKSI

Flight info

Callsign KAL434
Flight time 6h 23m
Altitude 37000
Route BLI G578 ZAM/N0482F380 A461 MIA B462 CAB/N0479F370 N884 ALBAX Y531 YURIX Y27 RUSAR Y579 RUGMA Z85 BILUM DCT MELES DCT GUKDO GUKDO2E
Aircraft B77W/H-SDE1E2E3FGHIJ2J3J4J5M1RWXY/LB1D1

Departure

Time 2026-05-04 19:56
Airport Denpasar I Gusti Ngurah Rai International Airport (WADD)

Arrival

Time 2026-05-05 02:19
Airport Incheon International Airport (RKSI)
Time Latitude Longitude Altitude Speed Heading
2026-05-04 19:40 -8.74548 115.16931 26 ft 0 kts 356°
2026-05-04 19:46 -8.74553 115.16932 27 ft 2 kts 359°
2026-05-04 19:46 -8.74567 115.16932 28 ft 3 kts 357°
2026-05-04 19:46 -8.74587 115.16933 30 ft 3 kts 349°
2026-05-04 19:47 -8.74606 115.16938 28 ft 3 kts 340°
2026-05-04 19:47 -8.74624 115.16946 28 ft 3 kts 330°
2026-05-04 19:47 -8.74641 115.16956 29 ft 3 kts 322°
2026-05-04 19:47 -8.74657 115.16969 27 ft 3 kts 317°
2026-05-04 19:48 -8.74664 115.16977 28 ft 1 kts 317°
2026-05-04 19:48 -8.74666 115.16978 28 ft 0 kts 317°
2026-05-04 19:51 -8.74665 115.16978 28 ft 1 kts 317°
2026-05-04 19:51 -8.74660 115.16930 27 ft 14 kts 262°
2026-05-04 19:51 -8.74669 115.16795 29 ft 24 kts 268°
2026-05-04 19:51 -8.74675 115.16624 25 ft 24 kts 268°
2026-05-04 19:52 -8.74680 115.16454 25 ft 24 kts 268°
2026-05-04 19:52 -8.74689 115.16284 27 ft 24 kts 266°
2026-05-04 19:52 -8.74701 115.16114 29 ft 24 kts 266°
2026-05-04 19:52 -8.74710 115.15945 29 ft 24 kts 271°
2026-05-04 19:53 -8.74713 115.15779 29 ft 23 kts 270°
2026-05-04 19:53 -8.74719 115.15618 25 ft 23 kts 268°
2026-05-04 19:53 -8.74724 115.15462 25 ft 15 kts 268°
2026-05-04 19:53 -8.74750 115.15402 28 ft 9 kts 219°
2026-05-04 19:54 -8.74771 115.15392 27 ft 0 kts 197°
2026-05-04 19:54 -8.74772 115.15392 27 ft 1 kts 197°
2026-05-04 19:54 -8.74793 115.15387 28 ft 7 kts 189°
2026-05-04 19:54 -8.74848 115.15390 27 ft 7 kts 176°
2026-05-04 19:55 -8.74873 115.15399 28 ft 1 kts 144°
2026-05-04 19:55 -8.74890 115.15443 28 ft 22 kts 101°
2026-05-04 19:55 -8.74873 115.15906 29 ft 112 kts 87°
2026-05-04 19:55 -8.74843 115.16969 132 ft 177 kts 90°
2026-05-04 19:56 -8.74802 115.18214 1185 ft 174 kts 90°
2026-05-04 19:56 -8.74755 115.19442 2156 ft 183 kts 89°
2026-05-04 19:56 -8.74699 115.20822 2428 ft 211 kts 88°
2026-05-04 19:56 -8.74632 115.22407 2779 ft 236 kts 88°
2026-05-04 19:57 -8.74558 115.24111 3461 ft 249 kts 88°
2026-05-04 19:57 -8.74482 115.25874 4307 ft 253 kts 88°
2026-05-04 19:57 -8.74406 115.27657 5205 ft 256 kts 88°
2026-05-04 19:57 -8.74328 115.29465 6069 ft 258 kts 88°
2026-05-04 19:58 -8.74252 115.31288 6874 ft 262 kts 88°
2026-05-04 19:58 -8.74175 115.33113 7652 ft 266 kts 88°
2026-05-04 19:58 -8.74096 115.34991 8482 ft 268 kts 88°
2026-05-04 19:58 -8.74016 115.36886 9267 ft 271 kts 88°
2026-05-04 19:59 -8.73936 115.38803 10032 ft 275 kts 88°
2026-05-04 19:59 -8.73854 115.40771 10572 ft 289 kts 88°
2026-05-04 19:59 -8.73766 115.42905 10729 ft 317 kts 88°
2026-05-04 19:59 -8.73670 115.45215 10949 ft 342 kts 88°
2026-05-04 20:00 -8.73565 115.47710 11196 ft 363 kts 87°
2026-05-04 20:00 -8.73094 115.50227 11773 ft 371 kts 70°
2026-05-04 20:00 -8.71901 115.52568 12476 ft 381 kts 55°
2026-05-04 20:00 -8.70091 115.54572 13051 ft 391 kts 46°
2026-05-04 20:01 -8.68102 115.56498 13713 ft 400 kts 45°
2026-05-04 20:01 -8.66074 115.58446 14406 ft 405 kts 45°
2026-05-04 20:01 -8.64038 115.60429 15123 ft 409 kts 45°
2026-05-04 20:01 -8.61995 115.62454 15841 ft 413 kts 46°
2026-05-04 20:02 -8.59944 115.64508 16516 ft 418 kts 46°
2026-05-04 20:02 -8.57861 115.66593 17196 ft 420 kts 44°
2026-05-04 20:02 -8.55479 115.68314 17627 ft 428 kts 24°
2026-05-04 20:02 -8.52597 115.69124 18282 ft 432 kts
2026-05-04 20:03 -8.49637 115.69072 18903 ft 432 kts 353°
2026-05-04 20:03 -8.46639 115.68642 19375 ft 439 kts 352°
2026-05-04 20:03 -8.43596 115.68208 19915 ft 442 kts 353°
2026-05-04 20:03 -8.40524 115.67912 20542 ft 444 kts 356°
2026-05-04 20:04 -8.37428 115.67736 21127 ft 448 kts 357°
2026-05-04 20:04 -8.34301 115.67596 21673 ft 452 kts 357°
2026-05-04 20:04 -8.31146 115.67452 22216 ft 455 kts 357°
2026-05-04 20:04 -8.27971 115.67290 22770 ft 459 kts 357°
2026-05-04 20:05 -8.24769 115.67112 23295 ft 462 kts 356°
2026-05-04 20:05 -8.21547 115.66921 23748 ft 466 kts 356°
2026-05-04 20:05 -8.18299 115.66724 24140 ft 469 kts 356°
2026-05-04 20:05 -8.15027 115.66524 24559 ft 472 kts 356°
2026-05-04 20:06 -8.11737 115.66323 24965 ft 476 kts 356°
2026-05-04 20:06 -8.08425 115.66122 25371 ft 479 kts 356°
2026-05-04 20:06 -8.05087 115.65920 25761 ft 482 kts 356°
2026-05-04 20:06 -8.01728 115.65717 26132 ft 485 kts 356°
2026-05-04 20:07 -7.98345 115.65513 26506 ft 489 kts 356°
2026-05-04 20:07 -7.94983 115.65310 26880 ft 492 kts 356°
2026-05-04 20:07 -7.91560 115.65104 27252 ft 495 kts 356°
2026-05-04 20:07 -7.88111 115.64896 27593 ft 498 kts 356°
2026-05-04 20:08 -7.84640 115.64687 27933 ft 501 kts 356°
2026-05-04 20:08 -7.81149 115.64477 28273 ft 504 kts 356°
2026-05-04 20:08 -7.77641 115.64265 28622 ft 506 kts 356°
2026-05-04 20:08 -7.74116 115.64053 28927 ft 509 kts 356°
2026-05-04 20:09 -7.70568 115.63839 29213 ft 512 kts 356°
2026-05-04 20:09 -7.67009 115.63625 29537 ft 513 kts 356°
2026-05-04 20:09 -7.63441 115.63410 29911 ft 514 kts 356°
2026-05-04 20:09 -7.59874 115.63197 30258 ft 512 kts 356°
2026-05-04 20:10 -7.56323 115.63337 30546 ft 512 kts
2026-05-04 20:10 -7.52938 115.64419 30872 ft 511 kts 27°
2026-05-04 20:10 -7.49853 115.66163 31179 ft 509 kts 30°
2026-05-04 20:10 -7.46767 115.67911 31486 ft 510 kts 29°
2026-05-04 20:11 -7.43667 115.69623 31940 ft 507 kts 28°
2026-05-04 20:11 -7.40566 115.71300 32448 ft 503 kts 28°
2026-05-04 20:11 -7.37478 115.72950 32923 ft 500 kts 28°
2026-05-04 20:11 -7.34409 115.74580 33419 ft 497 kts 27°
2026-05-04 20:12 -7.31355 115.76200 33913 ft 494 kts 27°
2026-05-04 20:12 -7.28314 115.77815 34284 ft 492 kts 27°
2026-05-04 20:12 -7.25280 115.79428 34582 ft 493 kts 28°
2026-05-04 20:12 -7.22280 115.81024 34786 ft 495 kts 28°
2026-05-04 20:13 -7.19216 115.82656 34827 ft 500 kts 28°
2026-05-04 20:13 -7.13057 115.85935 34865 ft 499 kts 28°
2026-05-04 20:14 -7.06949 115.89187 34858 ft 493 kts 28°
2026-05-04 20:14 -7.00898 115.92406 34871 ft 491 kts 28°
2026-05-04 20:15 -6.94783 115.95460 34879 ft 490 kts 24°
2026-05-04 20:15 -6.88547 115.98130 34878 ft 491 kts 22°
2026-05-04 20:16 -6.82242 116.00803 34872 ft 493 kts 23°
2026-05-04 20:16 -6.75938 116.03540 34873 ft 494 kts 24°
2026-05-04 20:17 -6.69614 116.06311 34872 ft 496 kts 24°
2026-05-04 20:17 -6.63289 116.09083 34872 ft 496 kts 24°
2026-05-04 20:18 -6.56953 116.11854 34870 ft 496 kts 24°
2026-05-04 20:18 -6.50603 116.14630 34869 ft 496 kts 24°
2026-05-04 20:19 -6.44319 116.17377 34870 ft 495 kts 24°
2026-05-04 20:19 -6.38005 116.20151 34867 ft 494 kts 24°
2026-05-04 20:20 -6.31705 116.22922 34867 ft 494 kts 24°
2026-05-04 20:20 -6.25408 116.25690 34867 ft 493 kts 24°
2026-05-04 20:21 -6.19115 116.28456 34869 ft 493 kts 24°
2026-05-04 20:21 -6.09720 116.32582 34869 ft 493 kts 24°
2026-05-04 20:22 -6.03435 116.35341 34869 ft 493 kts 24°
2026-05-04 20:22 -5.97131 116.38108 34870 ft 494 kts 24°
2026-05-04 20:23 -5.90837 116.40870 34870 ft 494 kts 24°
2026-05-04 20:23 -5.84539 116.43633 34871 ft 494 kts 24°
2026-05-04 20:24 -5.78238 116.46396 34870 ft 493 kts 25°
2026-05-04 20:24 -5.71946 116.49156 34864 ft 493 kts 25°
2026-05-04 20:25 -5.65692 116.51898 34866 ft 493 kts 25°
2026-05-04 20:25 -5.59407 116.54653 34868 ft 493 kts 25°
2026-05-04 20:26 -5.53122 116.57406 34865 ft 492 kts 25°
2026-05-04 20:26 -5.47907 116.59691 34866 ft 492 kts 25°
2026-05-04 20:27 -5.41637 116.62438 34864 ft 491 kts 25°
2026-05-04 20:27 -5.35372 116.65181 34867 ft 491 kts 25°
2026-05-04 20:28 -5.29105 116.67925 34863 ft 491 kts 25°
2026-05-04 20:28 -5.22879 116.70649 34864 ft 491 kts 25°
2026-05-04 20:29 -5.16618 116.73390 34864 ft 491 kts 25°
2026-05-04 20:29 -5.10356 116.76130 34864 ft 491 kts 25°
2026-05-04 20:30 -5.04092 116.78870 34864 ft 490 kts 25°
2026-05-04 20:30 -4.97832 116.81608 34864 ft 490 kts 25°
2026-05-04 20:31 -4.91577 116.84343 34864 ft 490 kts 25°
2026-05-04 20:31 -4.85317 116.87079 34863 ft 490 kts 25°
2026-05-04 20:32 -4.79055 116.89816 34862 ft 490 kts 25°
2026-05-04 20:32 -4.72846 116.92530 34864 ft 490 kts 25°
2026-05-04 20:33 -4.66593 116.95262 34867 ft 490 kts 25°
2026-05-04 20:33 -4.60344 116.97991 34871 ft 490 kts 25°
2026-05-04 20:34 -4.54096 117.00720 34865 ft 490 kts 25°
2026-05-04 20:34 -4.47846 117.03449 34866 ft 490 kts 24°
2026-05-04 20:35 -4.41596 117.06177 34865 ft 490 kts 24°
2026-05-04 20:35 -4.35393 117.08885 34865 ft 490 kts 24°
2026-05-04 20:36 -4.29147 117.11611 34866 ft 490 kts 24°
2026-05-04 20:36 -4.22897 117.14338 34863 ft 490 kts 24°
2026-05-04 20:37 -4.16644 117.17066 34866 ft 490 kts 24°
2026-05-04 20:37 -4.10400 117.19790 34871 ft 490 kts 24°
2026-05-04 20:38 -4.04150 117.22517 34870 ft 490 kts 24°
2026-05-04 20:38 -3.97900 117.25242 34869 ft 490 kts 24°
2026-05-04 20:39 -3.91645 117.27977 34869 ft 490 kts 24°
2026-05-04 20:39 -3.85441 117.30695 34869 ft 490 kts 24°
2026-05-04 20:40 -3.79195 117.33433 34871 ft 490 kts 24°
2026-05-04 20:40 -3.72946 117.36170 34868 ft 490 kts 24°
2026-05-04 20:41 -3.66694 117.38908 34868 ft 490 kts 24°
2026-05-04 20:41 -3.60443 117.41645 34869 ft 490 kts 24°
2026-05-04 20:42 -3.54178 117.44388 34870 ft 491 kts 24°
2026-05-04 20:42 -3.47955 117.47111 34870 ft 491 kts 24°
2026-05-04 20:43 -3.41701 117.49848 34870 ft 491 kts 24°
2026-05-04 20:43 -3.35445 117.52585 34867 ft 490 kts 24°
2026-05-04 20:44 -3.29178 117.55327 34869 ft 490 kts 24°
2026-05-04 20:44 -3.22921 117.58064 34871 ft 490 kts 24°
2026-05-04 20:45 -3.16700 117.60786 34874 ft 490 kts 24°
2026-05-04 20:45 -3.10454 117.63517 34871 ft 489 kts 24°
2026-05-04 20:46 -3.04205 117.66250 34871 ft 489 kts 24°
2026-05-04 20:46 -2.97971 117.68975 34871 ft 489 kts 24°
2026-05-04 20:47 -2.91737 117.71700 34869 ft 489 kts 24°
2026-05-04 20:47 -2.85543 117.74408 34872 ft 488 kts 24°
2026-05-04 20:48 -2.79318 117.77128 34872 ft 488 kts 24°
2026-05-04 20:48 -2.73089 117.79850 34872 ft 488 kts 24°
2026-05-04 20:49 -2.66860 117.82573 34870 ft 488 kts 24°
2026-05-04 20:49 -2.60629 117.85295 34873 ft 488 kts 24°
2026-05-04 20:50 -2.54407 117.88013 34870 ft 488 kts 24°
2026-05-04 20:50 -2.48180 117.90733 34867 ft 488 kts 24°
2026-05-04 20:51 -2.41994 117.93435 34869 ft 488 kts 24°
2026-05-04 20:51 -2.35769 117.96154 34870 ft 488 kts 24°
2026-05-04 20:52 -2.29544 117.98872 34869 ft 488 kts 24°
2026-05-04 20:52 -2.23316 118.01591 34868 ft 488 kts 24°
2026-05-04 20:53 -2.17096 118.04307 34868 ft 488 kts 24°
2026-05-04 20:53 -2.10875 118.07023 34872 ft 488 kts 24°
2026-05-04 20:54 -2.04650 118.09740 34872 ft 487 kts 24°
2026-05-04 20:54 -1.98431 118.12454 34870 ft 488 kts 24°
2026-05-04 20:55 -1.92248 118.15153 34870 ft 488 kts 25°
2026-05-04 20:55 -1.86023 118.17870 34870 ft 488 kts 25°
2026-05-04 20:56 -1.79801 118.20585 34872 ft 488 kts 24°
2026-05-04 20:56 -1.73571 118.23303 34870 ft 488 kts 24°
2026-05-04 20:57 -1.67376 118.26007 34870 ft 488 kts 24°
2026-05-04 20:57 -1.61140 118.28727 34869 ft 489 kts 24°
2026-05-04 20:58 -1.54892 118.31453 34872 ft 489 kts 24°
2026-05-04 20:58 -1.48647 118.34177 34871 ft 489 kts 24°
2026-05-04 20:59 -1.42442 118.36884 34873 ft 490 kts 24°
2026-05-04 20:59 -1.36193 118.39610 34870 ft 490 kts 24°
2026-05-04 21:00 -1.29936 118.42339 34874 ft 490 kts 24°
2026-05-04 21:00 -1.23675 118.45069 34874 ft 490 kts 24°
2026-05-04 21:01 -1.17418 118.47798 34873 ft 491 kts 24°
2026-05-04 21:01 -1.11155 118.50529 34874 ft 491 kts 24°
2026-05-04 21:02 -1.04926 118.53245 34872 ft 491 kts 24°
2026-05-04 21:02 -0.98663 118.55976 34874 ft 491 kts 24°
2026-05-04 21:03 -0.92385 118.58714 34877 ft 491 kts 24°
2026-05-04 21:03 -0.86153 118.61431 34874 ft 491 kts 24°
2026-05-04 21:04 -0.79877 118.64168 34877 ft 491 kts 24°
2026-05-04 21:04 -0.73615 118.66898 34878 ft 491 kts 25°
2026-05-04 21:05 -0.67347 118.69630 34876 ft 492 kts 25°
2026-05-04 21:05 -0.61076 118.72364 34875 ft 492 kts 25°
2026-05-04 21:06 -0.54807 118.75097 34875 ft 492 kts 25°
2026-05-04 21:06 -0.48536 118.77831 34876 ft 492 kts 25°
2026-05-04 21:07 -0.42266 118.80564 34872 ft 492 kts 25°
2026-05-04 21:07 -0.35990 118.83301 34874 ft 492 kts 25°
2026-05-04 21:08 -0.29716 118.86035 34874 ft 492 kts 25°
2026-05-04 21:08 -0.23435 118.88774 34873 ft 492 kts 25°
2026-05-04 21:09 -0.17202 118.91491 34873 ft 492 kts 25°
2026-05-04 21:09 -0.10925 118.94228 34872 ft 492 kts 25°
2026-05-04 21:10 -0.04651 118.96963 34873 ft 492 kts 25°
2026-05-04 21:10 0.01626 118.99698 34874 ft 492 kts 25°
2026-05-04 21:11 0.07912 119.02431 34873 ft 492 kts 25°
2026-05-04 21:11 0.14197 119.05163 34874 ft 493 kts 25°
2026-05-04 21:12 0.20480 119.07895 34875 ft 493 kts 25°
2026-05-04 21:12 0.26772 119.10632 34878 ft 493 kts 25°
2026-05-04 21:13 0.33070 119.13372 34877 ft 493 kts 25°
2026-05-04 21:13 0.39371 119.16113 34878 ft 494 kts 25°
2026-05-04 21:14 0.45627 119.18835 34876 ft 494 kts 25°
2026-05-04 21:14 0.51929 119.21576 34874 ft 494 kts 25°
2026-05-04 21:15 0.58228 119.24317 34874 ft 494 kts 25°
2026-05-04 21:15 0.63504 119.26612 34873 ft 494 kts 25°
2026-05-04 21:16 0.69761 119.29334 34874 ft 493 kts 25°
2026-05-04 21:16 0.76058 119.32074 34876 ft 493 kts 25°
2026-05-04 21:17 0.82349 119.34811 34878 ft 493 kts 25°
2026-05-04 21:17 0.88644 119.37550 34878 ft 493 kts 25°
2026-05-04 21:18 0.94935 119.40287 34877 ft 493 kts 25°
2026-05-04 21:18 1.01220 119.43022 34876 ft 493 kts 25°
2026-05-04 21:19 1.07518 119.45763 34875 ft 493 kts 25°
2026-05-04 21:19 1.13769 119.48483 34874 ft 493 kts 25°
2026-05-04 21:20 1.20066 119.51223 34876 ft 493 kts 25°
2026-05-04 21:20 1.26352 119.53959 34874 ft 493 kts 25°
2026-05-04 21:21 1.32648 119.56700 34875 ft 492 kts 25°
2026-05-04 21:21 1.38936 119.59436 34871 ft 492 kts 25°
2026-05-04 21:22 1.45181 119.62155 34872 ft 492 kts 25°
2026-05-04 21:22 1.51464 119.64890 34871 ft 491 kts 25°
2026-05-04 21:23 1.57741 119.67623 34873 ft 491 kts 25°
2026-05-04 21:23 1.63973 119.70335 34871 ft 491 kts 25°
2026-05-04 21:24 1.70234 119.73062 34868 ft 491 kts 25°
2026-05-04 21:24 1.76497 119.75789 34870 ft 491 kts 25°
2026-05-04 21:25 1.82759 119.78516 34868 ft 490 kts 25°
2026-05-04 21:25 1.89017 119.81241 34869 ft 490 kts 25°
2026-05-04 21:26 1.95264 119.83962 34868 ft 490 kts 25°
2026-05-04 21:26 2.01511 119.86683 34870 ft 490 kts 25°
2026-05-04 21:27 2.07760 119.89405 34870 ft 489 kts 25°
2026-05-04 21:27 2.14001 119.92124 34866 ft 489 kts 25°
2026-05-04 21:28 2.20240 119.94842 34867 ft 489 kts 25°
2026-05-04 21:28 2.26479 119.97561 34872 ft 489 kts 25°
2026-05-04 21:29 2.32721 120.00281 34869 ft 489 kts 25°
2026-05-04 21:29 2.38954 120.02997 34870 ft 488 kts 25°
2026-05-04 21:30 2.45147 120.05696 34865 ft 488 kts 25°
2026-05-04 21:30 2.51382 120.08414 34869 ft 488 kts 25°
2026-05-04 21:31 2.60724 120.12486 34867 ft 488 kts 25°
2026-05-04 21:32 2.66956 120.15204 34870 ft 488 kts 25°
2026-05-04 21:32 2.73183 120.17919 34871 ft 488 kts 25°
2026-05-04 21:33 2.79367 120.20616 34869 ft 488 kts 25°
2026-05-04 21:33 2.85605 120.23337 34868 ft 488 kts 25°
2026-05-04 21:34 2.91827 120.26051 34866 ft 488 kts 25°
2026-05-04 21:34 2.98064 120.28772 34869 ft 488 kts 25°
2026-05-04 21:35 3.04295 120.31491 34868 ft 489 kts 25°
2026-05-04 21:35 3.10495 120.34196 34869 ft 489 kts 25°
2026-05-04 21:36 3.16729 120.36917 34868 ft 489 kts 25°
2026-05-04 21:36 3.22974 120.39643 34869 ft 489 kts 25°
2026-05-04 21:37 3.29214 120.42367 34869 ft 489 kts 25°
2026-05-04 21:37 3.35461 120.45094 34868 ft 489 kts 25°
2026-05-04 21:38 3.41702 120.47820 34867 ft 489 kts 25°
2026-05-04 21:38 3.47943 120.50545 34868 ft 489 kts 25°
2026-05-04 21:39 3.54140 120.53252 34869 ft 489 kts 25°
2026-05-04 21:39 3.60383 120.55980 34867 ft 489 kts 25°
2026-05-04 21:40 3.66616 120.58703 34869 ft 489 kts 25°
2026-05-04 21:40 3.72849 120.61427 34867 ft 489 kts 25°
2026-05-04 21:41 3.79088 120.64154 34868 ft 489 kts 25°
2026-05-04 21:41 3.85326 120.66881 34872 ft 489 kts 25°
2026-05-04 21:42 3.91563 120.69608 34872 ft 489 kts 25°
2026-05-04 21:42 3.97802 120.72337 34872 ft 489 kts 25°
2026-05-04 21:43 4.04033 120.75087 34872 ft 489 kts 25°
2026-05-04 21:43 4.10247 120.77887 34871 ft 490 kts 25°
2026-05-04 21:44 4.16453 120.80692 34872 ft 490 kts 25°
2026-05-04 21:44 4.22624 120.83475 34870 ft 490 kts 25°
2026-05-04 21:45 4.28841 120.86274 34871 ft 490 kts 25°
2026-05-04 21:45 4.35067 120.89076 34873 ft 490 kts 25°
2026-05-04 21:46 4.41297 120.91881 34872 ft 490 kts 25°
2026-05-04 21:46 4.47487 120.94668 34870 ft 490 kts 25°
2026-05-04 21:47 4.53715 120.97473 34869 ft 491 kts 25°
2026-05-04 21:47 4.59951 121.00283 34872 ft 491 kts 25°
2026-05-04 21:48 4.66186 121.03092 34873 ft 491 kts 25°
2026-05-04 21:48 4.72389 121.05888 34873 ft 491 kts 25°
2026-05-04 21:49 4.78625 121.08699 34868 ft 491 kts 25°
2026-05-04 21:49 4.84875 121.11517 34870 ft 491 kts 25°
2026-05-04 21:50 4.91109 121.14328 34871 ft 491 kts 25°
2026-05-04 21:50 4.97341 121.17139 34871 ft 491 kts 25°
2026-05-04 21:51 5.03585 121.19956 34868 ft 491 kts 25°
2026-05-04 21:51 5.09788 121.22755 34869 ft 491 kts 25°
2026-05-04 21:52 5.16027 121.25571 34867 ft 491 kts 25°
2026-05-04 21:52 5.22263 121.28386 34869 ft 491 kts 25°
2026-05-04 21:53 5.28499 121.31202 34868 ft 491 kts 25°
2026-05-04 21:53 5.34729 121.34016 34872 ft 491 kts 25°
2026-05-04 21:54 5.40959 121.36830 34871 ft 491 kts 25°
2026-05-04 21:54 5.47150 121.39628 34873 ft 491 kts 25°
2026-05-04 21:55 5.53371 121.42439 34872 ft 491 kts 25°
2026-05-04 21:55 5.59600 121.45255 34871 ft 490 kts 25°
2026-05-04 21:56 5.65832 121.48073 34871 ft 490 kts 25°
2026-05-04 21:56 5.72055 121.50887 34869 ft 490 kts 25°
2026-05-04 21:57 5.78274 121.53701 34871 ft 490 kts 25°
2026-05-04 21:57 5.84498 121.56517 34871 ft 490 kts 25°
2026-05-04 21:58 5.90722 121.59334 34870 ft 490 kts 25°
2026-05-04 21:58 5.96908 121.62135 34870 ft 491 kts 25°
2026-05-04 21:59 6.03136 121.64955 34870 ft 491 kts 25°
2026-05-04 21:59 6.09359 121.67773 34870 ft 491 kts 25°
2026-05-04 22:00 6.15598 121.70600 34872 ft 492 kts 25°
2026-05-04 22:00 6.21838 121.73428 34874 ft 492 kts 25°
2026-05-04 22:01 6.28078 121.76257 34875 ft 492 kts 25°
2026-05-04 22:01 6.34326 121.79090 34877 ft 492 kts 25°
2026-05-04 22:02 6.40575 121.81925 34881 ft 493 kts 25°
2026-05-04 22:02 6.45770 121.84282 34881 ft 493 kts 25°
2026-05-04 22:03 6.53049 121.87586 34883 ft 493 kts 25°
2026-05-04 22:03 6.59310 121.90426 34877 ft 494 kts 25°
2026-05-04 22:04 6.64527 121.92792 34884 ft 494 kts 25°
2026-05-04 22:04 6.70792 121.95636 34887 ft 494 kts 25°
2026-05-04 22:05 6.78097 121.98954 34891 ft 495 kts 25°
2026-05-04 22:05 6.83365 122.01348 34888 ft 495 kts 25°
2026-05-04 22:06 6.89668 122.04019 34883 ft 495 kts 16°
2026-05-04 22:06 6.96497 122.04794 34900 ft 495 kts 357°
2026-05-04 22:07 7.03289 122.03683 34895 ft 495 kts 348°
2026-05-04 22:07 7.10070 122.02326 34890 ft 497 kts 349°
2026-05-04 22:08 7.16832 122.01054 34889 ft 498 kts 349°
2026-05-04 22:08 7.23669 121.99811 34892 ft 499 kts 349°
2026-05-04 22:09 7.30507 121.98566 34890 ft 499 kts 349°
2026-05-04 22:09 7.37332 121.97319 34887 ft 498 kts 349°
2026-05-04 22:10 7.44156 121.96069 34885 ft 498 kts 349°
2026-05-04 22:10 7.50972 121.94819 34884 ft 497 kts 349°
2026-05-04 22:11 7.57739 121.93578 34881 ft 497 kts 349°
2026-05-04 22:11 7.64555 121.92328 34879 ft 497 kts 349°
2026-05-04 22:12 7.71354 121.91081 34879 ft 497 kts 349°
2026-05-04 22:12 7.78163 121.89831 34875 ft 496 kts 349°
2026-05-04 22:13 7.84961 121.88583 34873 ft 496 kts 349°
2026-05-04 22:13 7.91764 121.87334 34876 ft 496 kts 349°
2026-05-04 22:14 7.98530 121.86091 34877 ft 497 kts 349°
2026-05-04 22:14 8.05341 121.84839 34877 ft 497 kts 349°
2026-05-04 22:15 8.12152 121.83587 34875 ft 497 kts 349°
2026-05-04 22:15 8.18922 121.82342 34878 ft 498 kts 349°
2026-05-04 22:16 8.25742 121.81087 34880 ft 498 kts 349°
2026-05-04 22:16 8.32579 121.79829 34879 ft 499 kts 349°
2026-05-04 22:17 8.39380 121.78577 34884 ft 499 kts 349°
2026-05-04 22:17 8.46218 121.77318 34886 ft 499 kts 349°
2026-05-04 22:18 8.53051 121.76059 34879 ft 499 kts 349°
2026-05-04 22:18 8.59883 121.74800 34877 ft 499 kts 349°
2026-05-04 22:19 8.66715 121.73540 34877 ft 499 kts 349°
2026-05-04 22:19 8.73547 121.72280 34874 ft 499 kts 349°
2026-05-04 22:20 8.80375 121.71021 34878 ft 498 kts 349°
2026-05-04 22:20 8.87186 121.69764 34879 ft 497 kts 349°
2026-05-04 22:21 8.94000 121.68506 34879 ft 497 kts 349°
2026-05-04 22:21 9.00793 121.67251 34875 ft 496 kts 349°
2026-05-04 22:22 9.07583 121.65996 34874 ft 496 kts 349°
2026-05-04 22:22 9.14369 121.64742 34875 ft 496 kts 349°
2026-05-04 22:23 9.21162 121.63486 34880 ft 495 kts 349°
2026-05-04 22:23 9.27896 121.62240 34880 ft 495 kts 349°
2026-05-04 22:24 9.34684 121.60983 34875 ft 496 kts 349°
2026-05-04 22:24 9.41484 121.59724 34877 ft 496 kts 349°
2026-05-04 22:25 9.48275 121.58466 34877 ft 496 kts 349°
2026-05-04 22:25 9.55064 121.57209 34879 ft 496 kts 349°
2026-05-04 22:26 9.61855 121.55950 34876 ft 496 kts 349°
2026-05-04 22:26 9.68599 121.54699 34870 ft 496 kts 349°
2026-05-04 22:27 9.75388 121.53438 34878 ft 496 kts 349°
2026-05-04 22:27 9.82177 121.52171 34876 ft 496 kts 349°
2026-05-04 22:28 9.88923 121.50912 34881 ft 496 kts 349°
2026-05-04 22:28 9.95716 121.49650 34881 ft 496 kts 349°
2026-05-04 22:29 10.02506 121.48388 34883 ft 496 kts 348°
2026-05-04 22:29 10.09296 121.47125 34879 ft 495 kts 349°
2026-05-04 22:30 10.16034 121.45870 34880 ft 495 kts 348°
2026-05-04 22:30 10.22822 121.44605 34881 ft 495 kts 348°
2026-05-04 22:31 10.29601 121.43342 34876 ft 494 kts 348°
2026-05-04 22:31 10.36367 121.42081 34880 ft 494 kts 348°
2026-05-04 22:32 10.43125 121.40820 34881 ft 493 kts 348°
2026-05-04 22:32 10.49882 121.39559 34882 ft 493 kts 348°
2026-05-04 22:33 10.56595 121.38294 34885 ft 492 kts 348°
2026-05-04 22:33 10.63335 121.37003 34881 ft 493 kts 348°
2026-05-04 22:34 10.70071 121.35711 34880 ft 493 kts 348°
2026-05-04 22:34 10.76826 121.34418 34881 ft 493 kts 348°
2026-05-04 22:35 10.83533 121.33135 34881 ft 493 kts 348°
2026-05-04 22:35 10.90287 121.31842 34881 ft 493 kts 348°
2026-05-04 22:36 10.97028 121.30551 34877 ft 493 kts 348°
2026-05-04 22:36 11.03772 121.29266 34882 ft 493 kts 348°
2026-05-04 22:37 11.10476 121.28008 34880 ft 493 kts 348°
2026-05-04 22:37 11.17231 121.26742 34886 ft 492 kts 348°
2026-05-04 22:38 11.23967 121.25477 34882 ft 492 kts 348°
2026-05-04 22:38 11.30708 121.24208 34890 ft 492 kts 348°
2026-05-04 22:39 11.37443 121.22939 34887 ft 492 kts 348°
2026-05-04 22:39 11.44181 121.21670 34894 ft 492 kts 348°
2026-05-04 22:40 11.50922 121.20398 34891 ft 493 kts 348°
2026-05-04 22:40 11.57233 121.19207 34889 ft 493 kts 348°
2026-05-04 22:41 11.63926 121.17943 34890 ft 493 kts 348°
2026-05-04 22:41 11.70669 121.16669 34895 ft 493 kts 348°
2026-05-04 22:42 11.77409 121.15397 34892 ft 493 kts 348°
2026-05-04 22:42 11.84153 121.14123 34894 ft 493 kts 348°
2026-05-04 22:43 11.90909 121.12844 34894 ft 493 kts 348°
2026-05-04 22:43 11.97657 121.11568 34898 ft 493 kts 348°
2026-05-04 22:44 12.04406 121.10291 34899 ft 493 kts 348°
2026-05-04 22:44 12.11150 121.09013 34899 ft 493 kts 348°
2026-05-04 22:45 12.17895 121.07735 34897 ft 493 kts 348°
2026-05-04 22:45 12.28000 121.05819 34901 ft 493 kts 349°
2026-05-04 22:46 12.34746 121.04564 34900 ft 492 kts 351°
2026-05-04 22:46 12.41533 121.04126 34915 ft 492 kts 359°
2026-05-04 22:47 12.48391 121.04116 34915 ft 492 kts 360°
2026-05-04 22:47 12.55242 121.04099 34914 ft 492 kts 359°
2026-05-04 22:48 12.62095 121.04044 34924 ft 492 kts 359°
2026-05-04 22:48 12.68953 121.03972 34928 ft 492 kts 359°
2026-05-04 22:49 12.75799 121.03900 34931 ft 492 kts 359°
2026-05-04 22:49 12.82654 121.03829 34936 ft 492 kts 359°
2026-05-04 22:50 12.89469 121.03761 34944 ft 492 kts 359°
2026-05-04 22:50 12.96317 121.03692 34947 ft 492 kts 359°
2026-05-04 22:51 13.03139 121.03623 34947 ft 492 kts 359°
2026-05-04 22:51 13.09990 121.03554 34948 ft 492 kts 359°
2026-05-04 22:52 13.16843 121.03484 34951 ft 493 kts 359°
2026-05-04 22:52 13.23712 121.03415 34949 ft 493 kts 359°
2026-05-04 22:53 13.30582 121.03353 34944 ft 494 kts 359°
2026-05-04 22:53 13.37420 121.03302 34943 ft 494 kts 359°
2026-05-04 22:54 13.43143 121.03258 34941 ft 494 kts 359°
2026-05-04 22:54 13.50021 121.03203 34935 ft 494 kts 359°
2026-05-04 22:55 13.56897 121.03135 34935 ft 494 kts 359°
2026-05-04 22:55 13.63760 121.03055 34932 ft 493 kts 359°
2026-05-04 22:56 13.70625 121.02977 34932 ft 493 kts 359°
2026-05-04 22:56 13.77474 121.02901 34929 ft 492 kts 358°
2026-05-04 22:57 13.84321 121.02826 34931 ft 491 kts 358°
2026-05-04 22:57 13.91153 121.02750 34933 ft 491 kts 358°
2026-05-04 22:58 13.97996 121.02674 34936 ft 491 kts 358°
2026-05-04 22:58 14.04778 121.02599 34931 ft 491 kts 358°
2026-05-04 22:59 14.11603 121.02536 34936 ft 491 kts 358°
2026-05-04 22:59 14.18437 121.02479 34925 ft 491 kts 358°
2026-05-04 23:00 14.25271 121.02422 34922 ft 491 kts 358°
2026-05-04 23:00 14.32115 121.02363 34919 ft 491 kts 358°
2026-05-04 23:01 14.38951 121.02303 34918 ft 491 kts 358°
2026-05-04 23:01 14.45788 121.02244 34920 ft 491 kts 358°
2026-05-04 23:02 14.52595 121.02189 34917 ft 492 kts 358°
2026-05-04 23:02 14.59437 121.02197 34918 ft 492 kts 358°
2026-05-04 23:03 14.66295 121.02225 34916 ft 492 kts 358°
2026-05-04 23:03 14.73154 121.02246 34930 ft 492 kts 358°
2026-05-04 23:04 14.80002 121.02261 34939 ft 492 kts 358°
2026-05-04 23:04 14.86860 121.02274 34941 ft 492 kts 358°
2026-05-04 23:05 14.93673 121.02288 34938 ft 492 kts 358°
2026-05-04 23:05 15.00528 121.02302 34944 ft 492 kts 358°
2026-05-04 23:06 15.07386 121.02316 34946 ft 492 kts 358°
2026-05-04 23:06 15.14229 121.02330 34941 ft 492 kts 358°
2026-05-04 23:07 15.21080 121.02344 34943 ft 492 kts 358°
2026-05-04 23:07 15.27928 121.02358 34945 ft 492 kts 358°
2026-05-04 23:08 15.34781 121.02372 34945 ft 492 kts 358°
2026-05-04 23:08 15.41576 121.02386 34943 ft 491 kts 358°
2026-05-04 23:09 15.48389 121.03131 34943 ft 496 kts 11°
2026-05-04 23:09 15.54901 121.05539 34952 ft 500 kts 23°
2026-05-04 23:10 15.61158 121.08700 34952 ft 501 kts 24°
2026-05-04 23:10 15.67415 121.11895 34955 ft 501 kts 24°
2026-05-04 23:11 15.73701 121.15050 34962 ft 501 kts 23°
2026-05-04 23:11 15.79996 121.18178 34968 ft 502 kts 23°
2026-05-04 23:12 15.86304 121.21309 34980 ft 502 kts 23°
2026-05-04 23:12 15.92567 121.24422 34987 ft 502 kts 23°
2026-05-04 23:13 15.98878 121.27564 34983 ft 502 kts 23°
2026-05-04 23:13 16.05178 121.30704 35001 ft 502 kts 23°
2026-05-04 23:14 16.11475 121.33843 34994 ft 502 kts 23°
2026-05-04 23:14 16.17774 121.36986 35003 ft 502 kts 23°
2026-05-04 23:15 16.24072 121.40131 35007 ft 502 kts 23°
2026-05-04 23:15 16.30363 121.43274 35003 ft 502 kts 23°
2026-05-04 23:16 16.36658 121.46421 34998 ft 501 kts 23°
2026-05-04 23:16 16.42916 121.49552 34995 ft 502 kts 23°
2026-05-04 23:17 16.49215 121.52707 34993 ft 501 kts 23°
2026-05-04 23:17 16.55505 121.55859 34983 ft 502 kts 23°
2026-05-04 23:18 16.61800 121.59016 34980 ft 502 kts 23°
2026-05-04 23:18 16.68102 121.62178 34972 ft 502 kts 22°
2026-05-04 23:19 16.74357 121.65320 34970 ft 502 kts 22°
2026-05-04 23:19 16.80650 121.68483 34966 ft 502 kts 22°
2026-05-04 23:20 16.86948 121.71652 34967 ft 502 kts 22°
2026-05-04 23:20 16.93246 121.74822 34967 ft 502 kts 23°
2026-05-04 23:21 16.99498 121.78087 34966 ft 502 kts 24°
2026-05-04 23:21 17.05725 121.81431 34968 ft 503 kts 24°
2026-05-04 23:22 17.11947 121.84766 34965 ft 502 kts 24°
2026-05-04 23:22 17.18170 121.88087 34973 ft 502 kts 24°
2026-05-04 23:23 17.24366 121.91388 34974 ft 503 kts 24°
2026-05-04 23:23 17.30601 121.94713 34980 ft 503 kts 24°
2026-05-04 23:24 17.36835 121.98042 34983 ft 503 kts 24°
2026-05-04 23:24 17.43064 122.01370 34977 ft 502 kts 24°
2026-05-04 23:25 17.49291 122.04701 34985 ft 501 kts 24°
2026-05-04 23:25 17.55494 122.08022 34984 ft 501 kts 24°
2026-05-04 23:26 17.61697 122.11343 34988 ft 501 kts 24°
2026-05-04 23:26 17.67921 122.14681 34976 ft 502 kts 24°
2026-05-04 23:27 17.74115 122.18004 34977 ft 503 kts 24°
2026-05-04 23:27 17.80346 122.21350 34972 ft 503 kts 24°
2026-05-04 23:28 17.86582 122.24680 34972 ft 503 kts 23°
2026-05-04 23:28 17.92858 122.27935 34971 ft 502 kts 22°
2026-05-04 23:29 17.99131 122.31171 34965 ft 502 kts 22°
2026-05-04 23:29 18.05396 122.34418 34969 ft 502 kts 22°
2026-05-04 23:30 18.11650 122.37672 34964 ft 502 kts 22°
2026-05-04 23:30 18.17908 122.40933 34968 ft 501 kts 22°
2026-05-04 23:31 18.24120 122.44172 34966 ft 501 kts 22°
2026-05-04 23:31 18.30372 122.47435 34967 ft 501 kts 22°
2026-05-04 23:32 18.36616 122.50695 34968 ft 501 kts 22°
2026-05-04 23:32 18.42867 122.53962 34965 ft 501 kts 22°
2026-05-04 23:33 18.49126 122.57235 34967 ft 501 kts 22°
2026-05-04 23:33 18.55370 122.60504 34967 ft 501 kts 22°
2026-05-04 23:34 18.61586 122.63760 34968 ft 502 kts 22°
2026-05-04 23:34 18.67836 122.67037 34968 ft 502 kts 22°
2026-05-04 23:35 18.74098 122.70323 34968 ft 502 kts 22°
2026-05-04 23:35 18.80348 122.73605 34970 ft 502 kts 22°
2026-05-04 23:36 18.86637 122.76908 35151 ft 509 kts 22°
2026-05-04 23:36 18.89811 122.78577 35560 ft 507 kts 22°
2026-05-04 23:36 18.92964 122.80238 36025 ft 505 kts 22°
2026-05-04 23:37 18.96095 122.81888 36468 ft 503 kts 22°
2026-05-04 23:37 18.99223 122.83537 36864 ft 501 kts 22°
2026-05-04 23:37 19.02357 122.85187 36986 ft 505 kts 22°
2026-05-04 23:37 19.05473 122.86828 36976 ft 507 kts 22°
2026-05-04 23:38 19.11774 122.90152 36959 ft 502 kts 22°
2026-05-04 23:38 19.18014 122.93447 36973 ft 499 kts 22°
2026-05-04 23:39 19.24186 122.96708 36974 ft 498 kts 22°
2026-05-04 23:39 19.30400 122.99992 36979 ft 499 kts 22°
2026-05-04 23:40 19.36617 123.03281 36972 ft 500 kts 22°
2026-05-04 23:40 19.42843 123.06578 36971 ft 501 kts 22°
2026-05-04 23:41 19.48036 123.09331 36974 ft 502 kts 22°
2026-05-04 23:41 19.55305 123.13187 36976 ft 503 kts 22°
2026-05-04 23:42 19.61565 123.16512 36980 ft 504 kts 22°
2026-05-04 23:42 19.67832 123.19843 36977 ft 504 kts 22°
2026-05-04 23:43 19.74107 123.23182 36978 ft 504 kts 22°
2026-05-04 23:43 19.79321 123.25958 36977 ft 504 kts 22°
2026-05-04 23:44 19.85591 123.29299 36979 ft 504 kts 22°
2026-05-04 23:44 19.91864 123.32644 36981 ft 504 kts 22°
2026-05-04 23:45 19.98126 123.35987 36979 ft 504 kts 22°
2026-05-04 23:45 20.04385 123.39331 36980 ft 504 kts 22°
2026-05-04 23:46 20.10648 123.42680 36987 ft 504 kts 22°
2026-05-04 23:46 20.16918 123.46036 36983 ft 504 kts 22°
2026-05-04 23:47 20.23139 123.49369 36986 ft 504 kts 22°
2026-05-04 23:47 20.29400 123.52725 36984 ft 504 kts 22°
2026-05-04 23:48 20.35676 123.56094 36989 ft 505 kts 22°
2026-05-04 23:48 20.41951 123.59464 36988 ft 505 kts 22°
2026-05-04 23:49 20.48235 123.62843 36994 ft 505 kts 22°
2026-05-04 23:49 20.54513 123.66222 36992 ft 505 kts 22°
2026-05-04 23:50 20.60757 123.69585 36995 ft 506 kts 22°
2026-05-04 23:50 20.67047 123.72977 36991 ft 506 kts 22°
2026-05-04 23:51 20.73335 123.76370 36993 ft 506 kts 22°
2026-05-04 23:51 20.79619 123.79765 36994 ft 506 kts 22°
2026-05-04 23:52 20.85912 123.83168 36998 ft 507 kts 22°
2026-05-04 23:52 20.92163 123.86552 36989 ft 507 kts 22°
2026-05-04 23:53 20.98453 123.89959 36996 ft 507 kts 22°
2026-05-04 23:53 21.04754 123.93372 36997 ft 507 kts 22°
2026-05-04 23:54 21.11064 123.96786 36997 ft 508 kts 22°
2026-05-04 23:54 21.17380 124.00207 36999 ft 508 kts 22°
2026-05-04 23:55 21.23649 124.03607 37000 ft 508 kts 22°
2026-05-04 23:56 21.33125 124.08754 37017 ft 509 kts 22°
2026-05-04 23:56 21.39449 124.12194 37003 ft 509 kts 22°
2026-05-04 23:57 21.45774 124.15637 37004 ft 510 kts 22°
2026-05-04 23:57 21.52105 124.19086 37010 ft 510 kts 22°
2026-05-04 23:58 21.58443 124.22543 37009 ft 511 kts 22°
2026-05-04 23:58 21.64737 124.25980 37007 ft 511 kts 22°
2026-05-04 23:59 21.71082 124.29448 37009 ft 511 kts 22°
2026-05-04 23:59 21.77418 124.32913 37009 ft 511 kts 22°
2026-05-05 00:00 21.83764 124.36389 37011 ft 511 kts 22°
2026-05-05 00:00 21.90112 124.39869 37010 ft 511 kts 22°
2026-05-05 00:01 21.96419 124.43329 37014 ft 511 kts 22°
2026-05-05 00:01 22.02759 124.46811 37015 ft 511 kts 22°
2026-05-05 00:02 22.09115 124.50306 37020 ft 511 kts 22°
2026-05-05 00:02 22.15462 124.53799 37015 ft 512 kts 22°
2026-05-05 00:03 22.21796 124.57289 37017 ft 512 kts 22°
2026-05-05 00:03 22.28143 124.60789 37016 ft 512 kts 21°
2026-05-05 00:04 22.34487 124.64291 37023 ft 512 kts 21°
2026-05-05 00:04 22.40792 124.67776 37030 ft 512 kts 22°
2026-05-05 00:05 22.47145 124.71290 37026 ft 513 kts 21°
2026-05-05 00:05 22.53499 124.74809 37031 ft 513 kts 22°
2026-05-05 00:06 22.59852 124.78331 37029 ft 513 kts 22°
2026-05-05 00:06 22.66212 124.81860 37031 ft 513 kts 21°
2026-05-05 00:07 22.72558 124.85386 37032 ft 512 kts 21°
2026-05-05 00:07 22.78861 124.88890 37033 ft 512 kts 21°
2026-05-05 00:08 22.85197 124.92418 37034 ft 512 kts 21°
2026-05-05 00:08 22.91542 124.95954 37037 ft 512 kts 21°
2026-05-05 00:09 22.97877 124.99487 37038 ft 511 kts 21°
2026-05-05 00:09 23.04176 125.03005 37045 ft 511 kts 21°
2026-05-05 00:10 23.10496 125.06538 37042 ft 511 kts 21°
2026-05-05 00:10 23.16832 125.10084 37047 ft 511 kts 21°
2026-05-05 00:11 23.23171 125.13635 37048 ft 512 kts 21°
2026-05-05 00:11 23.29512 125.17192 37050 ft 512 kts 21°
2026-05-05 00:12 23.35841 125.20743 37287 ft 516 kts 21°
2026-05-05 00:12 23.39029 125.22535 37703 ft 514 kts 22°
2026-05-05 00:12 23.42207 125.24324 38153 ft 512 kts 22°
2026-05-05 00:12 23.45360 125.26100 38597 ft 509 kts 22°
2026-05-05 00:13 23.48509 125.27873 38946 ft 508 kts 21°
2026-05-05 00:13 23.54820 125.31424 39060 ft 512 kts 22°
2026-05-05 00:14 23.61095 125.34963 39045 ft 509 kts 22°
2026-05-05 00:14 23.67374 125.38504 39047 ft 506 kts 21°
2026-05-05 00:15 23.73622 125.42030 39069 ft 505 kts 21°
2026-05-05 00:15 23.79859 125.45553 39062 ft 505 kts 21°
2026-05-05 00:16 23.86110 125.49089 39062 ft 506 kts 21°
2026-05-05 00:16 23.92386 125.52642 39068 ft 508 kts 21°
2026-05-05 00:17 23.98638 125.56187 39074 ft 510 kts 21°
2026-05-05 00:17 24.04958 125.59775 39077 ft 512 kts 21°
2026-05-05 00:18 24.11288 125.63373 39075 ft 513 kts 21°
2026-05-05 00:18 24.17642 125.66989 39075 ft 514 kts 21°
2026-05-05 00:19 24.23961 125.70588 39077 ft 514 kts 21°
2026-05-05 00:19 24.30314 125.74211 39077 ft 514 kts 21°
2026-05-05 00:20 24.36663 125.77837 39088 ft 514 kts 21°
2026-05-05 00:20 24.43009 125.81464 39085 ft 514 kts 21°
2026-05-05 00:21 24.49347 125.85091 39094 ft 513 kts 21°
2026-05-05 00:21 24.55686 125.88721 39086 ft 513 kts 21°
2026-05-05 00:22 24.62014 125.92350 39104 ft 514 kts 21°
2026-05-05 00:22 24.68358 125.95992 39096 ft 514 kts 21°
2026-05-05 00:23 24.74707 125.99642 39100 ft 514 kts 21°
2026-05-05 00:23 24.81055 126.03296 39098 ft 514 kts 21°
2026-05-05 00:24 24.87396 126.06950 39105 ft 515 kts 21°
2026-05-05 00:24 24.93709 126.10591 39105 ft 516 kts 21°
2026-05-05 00:25 25.00070 126.14264 39112 ft 516 kts 21°
2026-05-05 00:25 25.06427 126.17940 39119 ft 517 kts 21°
2026-05-05 00:26 25.12801 126.21628 39107 ft 518 kts 21°
2026-05-05 00:26 25.19175 126.25324 39119 ft 517 kts 21°
2026-05-05 00:27 25.25559 126.29028 39124 ft 519 kts 21°
2026-05-05 00:27 25.31960 126.32746 39129 ft 520 kts 21°
2026-05-05 00:28 25.38379 126.36479 39121 ft 522 kts 21°
2026-05-05 00:28 25.44800 126.40221 39117 ft 520 kts 21°
2026-05-05 00:29 25.51187 126.43947 39128 ft 518 kts 21°
2026-05-05 00:29 25.57530 126.47650 39130 ft 517 kts 21°
2026-05-05 00:30 25.63887 126.51364 39141 ft 517 kts 21°
2026-05-05 00:30 25.70263 126.55093 39128 ft 518 kts 21°
2026-05-05 00:31 25.76638 126.58828 39137 ft 519 kts 21°
2026-05-05 00:31 25.83022 126.62573 39137 ft 519 kts 21°
2026-05-05 00:32 25.88334 126.65693 39138 ft 520 kts 21°
2026-05-05 00:32 25.94741 126.69460 39127 ft 521 kts 21°
2026-05-05 00:33 26.01151 126.73233 39135 ft 522 kts 21°
2026-05-05 00:33 26.08616 126.77634 39151 ft 523 kts 21°
2026-05-05 00:34 26.15052 126.81433 39149 ft 524 kts 21°
2026-05-05 00:34 26.20406 126.84597 39145 ft 524 kts 21°
2026-05-05 00:35 26.26850 126.88410 39150 ft 525 kts 21°
2026-05-05 00:35 26.33297 126.92229 39144 ft 525 kts 21°
2026-05-05 00:36 26.39792 126.96082 39146 ft 525 kts 21°
2026-05-05 00:36 26.46249 126.99916 39148 ft 526 kts 21°
2026-05-05 00:37 26.52706 127.03756 39152 ft 526 kts 21°
2026-05-05 00:37 26.59126 127.07579 39153 ft 526 kts 21°
2026-05-05 00:38 26.65587 127.11430 39151 ft 527 kts 21°
2026-05-05 00:38 26.72066 127.15298 39158 ft 527 kts 21°
2026-05-05 00:39 26.78531 127.19164 39162 ft 528 kts 21°
2026-05-05 00:39 26.85008 127.23040 39175 ft 528 kts 20°
2026-05-05 00:40 26.91485 127.26922 39182 ft 528 kts 20°
2026-05-05 00:40 26.97971 127.30813 39157 ft 529 kts 20°
2026-05-05 00:41 27.04454 127.34710 39155 ft 528 kts 20°
2026-05-05 00:41 27.10926 127.38605 39157 ft 528 kts 20°
2026-05-05 00:42 27.17399 127.42505 39158 ft 527 kts 20°
2026-05-05 00:42 27.23868 127.46408 39159 ft 527 kts 20°
2026-05-05 00:43 27.30335 127.50314 39168 ft 528 kts 20°
2026-05-05 00:43 27.36800 127.54225 39166 ft 528 kts 20°
2026-05-05 00:44 27.43229 127.58116 39163 ft 527 kts 19°
2026-05-05 00:44 27.49944 127.61038 39167 ft 510 kts
2026-05-05 00:45 27.56818 127.62384 39166 ft 495 kts 355°
2026-05-05 00:45 27.63688 127.62965 39169 ft 496 kts 354°
2026-05-05 00:46 27.70583 127.63519 39168 ft 498 kts 354°
2026-05-05 00:46 27.77510 127.64123 39169 ft 500 kts 354°
2026-05-05 00:47 27.84461 127.64760 39167 ft 502 kts 354°
2026-05-05 00:47 27.91436 127.65407 39165 ft 503 kts 354°
2026-05-05 00:48 27.98418 127.66053 39162 ft 504 kts 354°
2026-05-05 00:48 28.05411 127.66699 39166 ft 504 kts 354°
2026-05-05 00:49 28.12400 127.67345 39163 ft 504 kts 354°
2026-05-05 00:49 28.19389 127.67991 39165 ft 504 kts 354°
2026-05-05 00:50 28.26376 127.68638 39173 ft 504 kts 354°
2026-05-05 00:50 28.33316 127.69281 39175 ft 504 kts 354°
2026-05-05 00:51 28.40296 127.69928 39167 ft 503 kts 354°
2026-05-05 00:51 28.47282 127.70577 39169 ft 503 kts 354°
2026-05-05 00:52 28.54265 127.71227 39168 ft 504 kts 354°
2026-05-05 00:52 28.61253 127.71878 39170 ft 504 kts 354°
2026-05-05 00:53 28.68244 127.72530 39174 ft 504 kts 354°
2026-05-05 00:53 28.75243 127.73184 39178 ft 505 kts 354°
2026-05-05 00:54 28.82251 127.73839 39182 ft 505 kts 354°
2026-05-05 00:54 28.89259 127.74496 39180 ft 506 kts 354°
2026-05-05 00:55 28.96276 127.75154 39177 ft 506 kts 354°
2026-05-05 00:55 29.03256 127.75810 39179 ft 506 kts 354°
2026-05-05 00:56 29.10277 127.76470 39181 ft 507 kts 354°
2026-05-05 00:56 29.17306 127.77133 39181 ft 507 kts 354°
2026-05-05 00:57 29.24332 127.77796 39178 ft 507 kts 354°
2026-05-05 00:57 29.31360 127.78460 39179 ft 507 kts 354°
2026-05-05 00:58 29.38384 127.79124 39183 ft 507 kts 354°
2026-05-05 00:58 29.45416 127.79790 39189 ft 507 kts 354°
2026-05-05 00:59 29.52439 127.80456 39186 ft 507 kts 354°
2026-05-05 00:59 29.59466 127.81123 39186 ft 507 kts 353°
2026-05-05 01:00 29.66490 127.81791 39190 ft 507 kts 353°
2026-05-05 01:00 29.73518 127.82461 39191 ft 506 kts 353°
2026-05-05 01:01 29.80543 127.83129 39196 ft 506 kts 353°
2026-05-05 01:01 29.84020 127.83232 39188 ft 495 kts 346°
2026-05-05 01:01 29.87416 127.82936 39198 ft 486 kts 341°
2026-05-05 01:02 29.93919 127.81424 39195 ft 470 kts 332°
2026-05-05 01:02 30.00184 127.79339 39200 ft 469 kts 332°
2026-05-05 01:03 30.06459 127.77250 39204 ft 470 kts 332°
2026-05-05 01:03 30.12756 127.75197 39196 ft 470 kts 332°
2026-05-05 01:04 30.19059 127.73154 39200 ft 471 kts 332°
2026-05-05 01:04 30.28520 127.70076 39198 ft 471 kts 332°
2026-05-05 01:05 30.34819 127.68017 39202 ft 470 kts 332°
2026-05-05 01:05 30.41118 127.65953 39204 ft 470 kts 332°
2026-05-05 01:06 30.47372 127.63901 39203 ft 470 kts 332°
2026-05-05 01:06 30.53666 127.61833 39200 ft 470 kts 332°
2026-05-05 01:07 30.59959 127.59763 39202 ft 470 kts 332°
2026-05-05 01:07 30.66250 127.57691 39198 ft 470 kts 332°
2026-05-05 01:08 30.72585 127.55601 39209 ft 470 kts 332°
2026-05-05 01:08 30.78836 127.53536 39210 ft 471 kts 332°
2026-05-05 01:09 30.85141 127.51450 39204 ft 471 kts 332°
2026-05-05 01:09 30.91452 127.49361 39206 ft 472 kts 332°
2026-05-05 01:10 30.97765 127.47267 39207 ft 472 kts 332°
2026-05-05 01:10 31.04091 127.45166 39207 ft 473 kts 332°
2026-05-05 01:11 31.10418 127.43062 39204 ft 473 kts 332°
2026-05-05 01:11 31.16741 127.40956 39205 ft 473 kts 332°
2026-05-05 01:12 31.23071 127.38846 39205 ft 473 kts 332°
2026-05-05 01:12 31.29400 127.36745 39209 ft 473 kts 332°
2026-05-05 01:13 31.35743 127.34667 39210 ft 473 kts 332°
2026-05-05 01:13 31.42078 127.32591 39214 ft 473 kts 332°
2026-05-05 01:14 31.48409 127.30508 39210 ft 472 kts 332°
2026-05-05 01:14 31.54727 127.28424 39210 ft 472 kts 332°
2026-05-05 01:15 31.61004 127.26350 39211 ft 472 kts 332°
2026-05-05 01:15 31.67360 127.24247 39209 ft 471 kts 332°
2026-05-05 01:16 31.73631 127.22170 39213 ft 471 kts 332°
2026-05-05 01:16 31.79938 127.20078 39203 ft 471 kts 332°
2026-05-05 01:17 31.86240 127.17984 39211 ft 471 kts 332°
2026-05-05 01:17 31.92544 127.15887 39216 ft 471 kts 332°
2026-05-05 01:18 31.98848 127.13786 39214 ft 471 kts 332°
2026-05-05 01:18 32.05159 127.11681 39216 ft 471 kts 332°
2026-05-05 01:19 32.11467 127.09565 39210 ft 471 kts 332°
2026-05-05 01:19 32.17773 127.07445 39205 ft 471 kts 333°
2026-05-05 01:20 32.24080 127.05322 39206 ft 471 kts 333°
2026-05-05 01:20 32.29327 127.03555 39211 ft 472 kts 333°
2026-05-05 01:21 32.35639 127.01435 39205 ft 472 kts 333°
2026-05-05 01:21 32.43016 126.98956 39201 ft 472 kts 333°
2026-05-05 01:22 32.48352 126.97408 39203 ft 482 kts 340°
2026-05-05 01:22 32.56273 126.96878 39205 ft 501 kts 353°
2026-05-05 01:23 32.62121 126.97377 39212 ft 504 kts 355°
2026-05-05 01:23 32.69110 126.98091 39212 ft 504 kts 355°
2026-05-05 01:24 32.76094 126.98759 39207 ft 503 kts 354°
2026-05-05 01:24 32.83061 126.99379 39207 ft 502 kts 354°
2026-05-05 01:25 32.90026 126.99986 39211 ft 502 kts 354°
2026-05-05 01:25 32.96939 127.00592 39210 ft 501 kts 354°
2026-05-05 01:26 33.03888 127.01205 39210 ft 501 kts 354°
2026-05-05 01:26 33.10832 127.01820 39204 ft 500 kts 355°
2026-05-05 01:27 33.17768 127.02434 39205 ft 500 kts 355°
2026-05-05 01:27 33.24704 127.03050 39200 ft 499 kts 355°
2026-05-05 01:28 33.31633 127.03665 39203 ft 499 kts 355°
2026-05-05 01:28 33.38559 127.04282 39203 ft 499 kts 355°
2026-05-05 01:29 33.45482 127.04899 39206 ft 499 kts 355°
2026-05-05 01:29 33.52401 127.05517 39208 ft 499 kts 355°
2026-05-05 01:30 33.59319 127.06137 39203 ft 499 kts 355°
2026-05-05 01:30 33.66238 127.06786 39205 ft 499 kts 355°
2026-05-05 01:31 33.73154 127.07439 39198 ft 498 kts 355°
2026-05-05 01:31 33.80064 127.08078 39212 ft 498 kts 355°
2026-05-05 01:32 33.86977 127.08666 39209 ft 497 kts 355°
2026-05-05 01:32 33.93880 127.09242 39210 ft 497 kts 355°
2026-05-05 01:33 34.00778 127.09825 39209 ft 497 kts 356°
2026-05-05 01:33 34.07675 127.10414 39199 ft 497 kts 356°
2026-05-05 01:34 34.14563 127.11005 39200 ft 496 kts 356°
2026-05-05 01:34 34.21445 127.11596 39198 ft 495 kts 356°
2026-05-05 01:35 34.28319 127.12187 39196 ft 495 kts 356°
2026-05-05 01:35 34.35183 127.12778 39196 ft 494 kts 356°
2026-05-05 01:36 34.41977 127.13371 39114 ft 481 kts 356°
2026-05-05 01:36 34.48542 127.13948 39013 ft 465 kts 356°
2026-05-05 01:37 34.54888 127.14501 38911 ft 450 kts 356°
2026-05-05 01:37 34.61041 127.15031 38666 ft 439 kts 356°
2026-05-05 01:38 34.64074 127.15291 38417 ft 436 kts 356°
2026-05-05 01:38 34.67094 127.15549 38146 ft 433 kts 356°
2026-05-05 01:38 34.70091 127.15806 37894 ft 431 kts 356°
2026-05-05 01:38 34.73069 127.16063 37659 ft 428 kts 356°
2026-05-05 01:39 34.76032 127.16320 37402 ft 426 kts 356°
2026-05-05 01:39 34.78979 127.16575 37140 ft 424 kts 356°
2026-05-05 01:39 34.81911 127.16831 36910 ft 421 kts 356°
2026-05-05 01:39 34.84822 127.17085 36676 ft 418 kts 356°
2026-05-05 01:40 34.87734 127.17336 36163 ft 424 kts 357°
2026-05-05 01:40 34.90726 127.17588 35265 ft 439 kts 358°
2026-05-05 01:40 34.93837 127.17847 34275 ft 456 kts 358°
2026-05-05 01:40 34.97062 127.18121 33049 ft 473 kts 359°
2026-05-05 01:41 35.00396 127.18409 31815 ft 488 kts 359°
2026-05-05 01:41 35.03759 127.18707 31053 ft 491 kts 360°
2026-05-05 01:41 35.07202 127.19019 30349 ft 490 kts 360°
2026-05-05 01:41 35.10602 127.19327 29604 ft 489 kts
2026-05-05 01:42 35.13981 127.19630 28971 ft 485 kts
2026-05-05 01:42 35.17330 127.19927 28480 ft 479 kts
2026-05-05 01:42 35.20631 127.20220 27989 ft 473 kts
2026-05-05 01:42 35.23864 127.20505 27464 ft 470 kts
2026-05-05 01:43 35.27131 127.20791 27239 ft 472 kts
2026-05-05 01:43 35.30397 127.21077 27183 ft 470 kts
2026-05-05 01:43 35.33653 127.21362 27182 ft 469 kts
2026-05-05 01:43 35.36907 127.21649 27175 ft 469 kts
2026-05-05 01:44 35.40163 127.21936 27175 ft 469 kts
2026-05-05 01:44 35.43421 127.22225 27174 ft 469 kts
2026-05-05 01:44 35.46679 127.22513 27176 ft 469 kts
2026-05-05 01:44 35.49939 127.22801 27172 ft 470 kts
2026-05-05 01:45 35.53197 127.23089 27167 ft 470 kts
2026-05-05 01:45 35.56459 127.23379 27169 ft 469 kts
2026-05-05 01:45 35.59714 127.23669 27170 ft 469 kts
2026-05-05 01:45 35.62967 127.23958 27167 ft 469 kts
2026-05-05 01:46 35.66221 127.24247 27167 ft 469 kts
2026-05-05 01:46 35.69475 127.24537 27157 ft 468 kts
2026-05-05 01:46 35.72720 127.24826 27174 ft 468 kts
2026-05-05 01:46 35.75967 127.25115 27166 ft 468 kts
2026-05-05 01:47 35.79217 127.25406 27165 ft 468 kts
2026-05-05 01:47 35.82462 127.25697 27161 ft 467 kts
2026-05-05 01:47 35.85703 127.25988 27160 ft 467 kts
2026-05-05 01:47 35.88934 127.26476 27158 ft 469 kts
2026-05-05 01:48 35.92120 127.27376 27163 ft 470 kts 12°
2026-05-05 01:48 35.95284 127.28426 27159 ft 471 kts 13°
2026-05-05 01:48 35.98441 127.29499 27152 ft 471 kts 13°
2026-05-05 01:48 36.01598 127.30572 27157 ft 471 kts 13°
2026-05-05 01:49 36.04758 127.31636 27156 ft 470 kts 13°
2026-05-05 01:49 36.07912 127.32688 27154 ft 470 kts 13°
2026-05-05 01:49 36.11072 127.33732 27161 ft 470 kts 13°
2026-05-05 01:49 36.14229 127.34771 27151 ft 470 kts 13°
2026-05-05 01:50 36.17385 127.35810 27154 ft 469 kts 13°
2026-05-05 01:50 36.20540 127.36850 27155 ft 469 kts 13°
2026-05-05 01:50 36.23694 127.37891 27144 ft 467 kts 13°
2026-05-05 01:50 36.26799 127.39061 27145 ft 466 kts 14°
2026-05-05 01:51 36.29914 127.40136 27089 ft 464 kts 13°
2026-05-05 01:51 36.33033 127.41128 26770 ft 461 kts 12°
2026-05-05 01:51 36.36138 127.42095 26318 ft 460 kts 12°
2026-05-05 01:51 36.39194 127.43058 25897 ft 458 kts 13°
2026-05-05 01:52 36.42274 127.44047 25508 ft 456 kts 13°
2026-05-05 01:52 36.45328 127.45046 25164 ft 453 kts 14°
2026-05-05 01:52 36.48362 127.46047 24840 ft 449 kts 14°
2026-05-05 01:52 36.51373 127.47048 24499 ft 447 kts 14°
2026-05-05 01:53 36.54366 127.48045 24149 ft 445 kts 14°
2026-05-05 01:53 36.57352 127.49042 23804 ft 443 kts 14°
2026-05-05 01:53 36.60319 127.50031 23421 ft 441 kts 14°
2026-05-05 01:53 36.63277 127.51016 23027 ft 439 kts 14°
2026-05-05 01:54 36.66221 127.51997 22737 ft 435 kts 14°
2026-05-05 01:54 36.69118 127.52965 22545 ft 427 kts 14°
2026-05-05 01:54 36.71962 127.53916 22112 ft 420 kts 15°
2026-05-05 01:54 36.74763 127.54852 21659 ft 414 kts 15°
2026-05-05 01:55 36.77524 127.55777 21169 ft 409 kts 15°
2026-05-05 01:55 36.80253 127.56691 20734 ft 404 kts 15°
2026-05-05 01:55 36.82968 127.57600 20101 ft 404 kts 15°
2026-05-05 01:55 36.85664 127.58505 19687 ft 399 kts 15°
2026-05-05 01:56 36.88349 127.59406 19110 ft 399 kts 15°
2026-05-05 01:56 36.91013 127.60301 18697 ft 395 kts 15°
2026-05-05 01:56 36.93661 127.61191 18318 ft 393 kts 15°
2026-05-05 01:56 36.96322 127.62086 18150 ft 399 kts 15°
2026-05-05 01:57 36.99093 127.62513 18129 ft 408 kts 356°
2026-05-05 01:57 37.01830 127.61691 18128 ft 407 kts 335°
2026-05-05 01:57 37.04211 127.59785 18140 ft 407 kts 319°
2026-05-05 01:57 37.06209 127.57279 18121 ft 406 kts 309°
2026-05-05 01:58 37.07799 127.54377 18120 ft 406 kts 298°
2026-05-05 01:58 37.08938 127.51142 18129 ft 406 kts 287°
2026-05-05 01:58 37.09578 127.47715 18128 ft 405 kts 277°
2026-05-05 01:58 37.09853 127.44219 18124 ft 403 kts 273°
2026-05-05 01:59 37.10012 127.40709 17940 ft 405 kts 272°
2026-05-05 01:59 37.10141 127.37160 17290 ft 406 kts 271°
2026-05-05 01:59 37.10265 127.33674 16595 ft 393 kts 271°
2026-05-05 01:59 37.10387 127.30302 15596 ft 388 kts 271°
2026-05-05 02:00 37.10508 127.26931 15374 ft 387 kts 271°
2026-05-05 02:00 37.10633 127.23552 15218 ft 390 kts 271°
2026-05-05 02:00 37.10759 127.20130 15155 ft 394 kts 271°
2026-05-05 02:00 37.10887 127.16707 15164 ft 392 kts 271°
2026-05-05 02:01 37.11016 127.13302 15165 ft 391 kts 271°
2026-05-05 02:01 37.11143 127.09910 15160 ft 390 kts 271°
2026-05-05 02:01 37.11267 127.06508 15166 ft 391 kts 271°
2026-05-05 02:01 37.11394 127.03103 15164 ft 392 kts 271°
2026-05-05 02:02 37.11523 126.99692 15170 ft 392 kts 271°
2026-05-05 02:02 37.11651 126.96278 15162 ft 393 kts 271°
2026-05-05 02:02 37.11777 126.92868 15167 ft 393 kts 271°
2026-05-05 02:02 37.11904 126.89439 15158 ft 393 kts 271°
2026-05-05 02:03 37.12032 126.86025 15160 ft 393 kts 271°
2026-05-05 02:03 37.12161 126.82608 15152 ft 390 kts 272°
2026-05-05 02:03 37.12545 126.79287 15147 ft 392 kts 283°
2026-05-05 02:03 37.13430 126.76062 14980 ft 392 kts 293°
2026-05-05 02:04 37.14698 126.73043 14525 ft 390 kts 299°
2026-05-05 02:04 37.16095 126.70136 13983 ft 389 kts 301°
2026-05-05 02:04 37.17525 126.67272 13440 ft 386 kts 301°
2026-05-05 02:04 37.18953 126.64428 13213 ft 388 kts 301°
2026-05-05 02:05 37.20386 126.61580 13038 ft 378 kts 301°
2026-05-05 02:05 37.21734 126.58908 12398 ft 351 kts 301°
2026-05-05 02:05 37.23010 126.56386 11614 ft 334 kts 301°
2026-05-05 02:05 37.24236 126.53980 10856 ft 321 kts 301°
2026-05-05 02:06 37.25417 126.51663 10163 ft 309 kts 301°
2026-05-05 02:06 37.26549 126.49445 9568 ft 294 kts 301°
2026-05-05 02:06 37.27641 126.47346 9028 ft 281 kts 301°
2026-05-05 02:06 37.28677 126.45324 8454 ft 270 kts 301°
2026-05-05 02:07 37.29691 126.43366 7830 ft 268 kts 301°
2026-05-05 02:07 37.30371 126.42060 7596 ft 269 kts 301°
2026-05-05 02:07 37.31732 126.39469 7336 ft 262 kts 301°
2026-05-05 02:07 37.32737 126.37567 7065 ft 261 kts 301°
2026-05-05 02:08 37.33403 126.36312 6876 ft 260 kts 301°
2026-05-05 02:08 37.34405 126.34429 6591 ft 258 kts 301°
2026-05-05 02:08 37.35404 126.32558 6320 ft 257 kts 301°
2026-05-05 02:08 37.36403 126.30694 6006 ft 257 kts 301°
2026-05-05 02:09 37.37404 126.28832 5676 ft 257 kts 301°
2026-05-05 02:09 37.38404 126.26988 5490 ft 250 kts 302°
2026-05-05 02:09 37.39634 126.25511 5344 ft 245 kts 327°
2026-05-05 02:09 37.41134 126.24560 5217 ft 238 kts 331°
2026-05-05 02:10 37.42610 126.23671 5053 ft 232 kts 331°
2026-05-05 02:10 37.44067 126.22797 4765 ft 233 kts 331°
2026-05-05 02:10 37.45560 126.21900 4187 ft 246 kts 331°
2026-05-05 02:10 37.47152 126.20935 3536 ft 262 kts 331°
2026-05-05 02:11 37.48838 126.19911 2870 ft 276 kts 331°
2026-05-05 02:11 37.50593 126.18846 2283 ft 276 kts 331°
2026-05-05 02:11 37.52247 126.17846 2043 ft 252 kts 331°
2026-05-05 02:11 37.53751 126.16949 1949 ft 226 kts 331°
2026-05-05 02:12 37.55130 126.16139 1956 ft 214 kts 331°
2026-05-05 02:12 37.57922 126.14749 1959 ft 219 kts 356°
2026-05-05 02:12 37.59392 126.15189 1982 ft 221 kts 33°
2026-05-05 02:13 37.60412 126.16576 1987 ft 216 kts 70°
2026-05-05 02:13 37.60664 126.18394 1993 ft 209 kts 97°
2026-05-05 02:13 37.60551 126.20226 2004 ft 211 kts 100°
2026-05-05 02:13 37.60392 126.22075 2024 ft 214 kts 101°
2026-05-05 02:14 37.60164 126.23925 1933 ft 212 kts 108°
2026-05-05 02:14 37.59783 126.25687 1852 ft 204 kts 111°
2026-05-05 02:14 37.59405 126.27370 1816 ft 193 kts 111°
2026-05-05 02:14 37.59051 126.28947 1743 ft 181 kts 111°
2026-05-05 02:15 37.58589 126.30366 1731 ft 173 kts 134°
2026-05-05 02:15 37.57712 126.31369 1743 ft 171 kts 143°
2026-05-05 02:15 37.56825 126.32361 1723 ft 169 kts 145°
2026-05-05 02:15 37.55913 126.33258 1700 ft 164 kts 148°
2026-05-05 02:16 37.55037 126.34058 1700 ft 148 kts 149°
2026-05-05 02:16 37.54236 126.34776 1722 ft 137 kts 150°
2026-05-05 02:16 37.53457 126.35471 1677 ft 140 kts 150°
2026-05-05 02:16 37.52668 126.36172 1468 ft 137 kts 149°
2026-05-05 02:17 37.51896 126.36862 1261 ft 135 kts 149°
2026-05-05 02:17 37.51136 126.37540 1084 ft 134 kts 149°
2026-05-05 02:17 37.50376 126.38218 875 ft 133 kts 148°
2026-05-05 02:17 37.49623 126.38888 708 ft 135 kts 147°
2026-05-05 02:18 37.48852 126.39576 537 ft 133 kts 146°
2026-05-05 02:18 37.48091 126.40261 322 ft 134 kts 147°
2026-05-05 02:18 37.47341 126.40936 169 ft 133 kts 147°
2026-05-05 02:18 37.46585 126.41602 42 ft 130 kts 147°
2026-05-05 02:19 37.45936 126.42181 38 ft 93 kts 144°
2026-05-05 02:19 37.45537 126.42537 38 ft 49 kts 144°
2026-05-05 02:19 37.45337 126.42715 38 ft 29 kts 145°
2026-05-05 02:19 37.45180 126.42873 38 ft 28 kts 134°
2026-05-05 02:20 37.45102 126.43023 38 ft 11 kts 116°
2026-05-05 02:20 37.45071 126.43106 38 ft 12 kts 115°
2026-05-05 02:20 37.45054 126.43199 38 ft 11 kts 85°
2026-05-05 02:20 37.45092 126.43283 38 ft 12 kts 54°
2026-05-05 02:21 37.45141 126.43370 38 ft 13 kts 54°
2026-05-05 02:21 37.45196 126.43467 38 ft 14 kts 54°
2026-05-05 02:21 37.45246 126.43557 38 ft 6 kts 54°
2026-05-05 02:21 37.45282 126.43588 38 ft 7 kts
2026-05-05 02:22 37.45358 126.43537 38 ft 20 kts 324°
2026-05-05 02:22 37.45491 126.43419 38 ft 24 kts 324°
2026-05-05 02:22 37.45618 126.43304 38 ft 23 kts 324°
2026-05-05 02:22 37.45717 126.43216 38 ft 5 kts 324°
2026-05-05 02:23 37.45720 126.43213 38 ft 0 kts 324°
2026-05-05 02:23 37.45721 126.43213 38 ft 1 kts 324°
2026-05-05 02:23 37.45766 126.43177 38 ft 11 kts 338°
2026-05-05 02:24 37.45823 126.43209 38 ft 10 kts 55°
2026-05-05 02:24 37.45860 126.43279 38 ft 10 kts 54°
2026-05-05 02:24 37.45903 126.43343 38 ft 10 kts 32°
2026-05-05 02:24 37.45967 126.43333 38 ft 10 kts 332°
2026-05-05 02:25 37.46023 126.43285 38 ft 10 kts 325°
2026-05-05 02:25 37.46078 126.43236 38 ft 10 kts 325°
2026-05-05 02:25 37.46133 126.43188 38 ft 10 kts 325°
2026-05-05 02:25 37.46191 126.43144 38 ft 10 kts 344°
2026-05-05 02:26 37.46232 126.43185 38 ft 8 kts 70°
2026-05-05 02:26 37.46245 126.43235 38 ft 4 kts 70°
2026-05-05 02:26 37.46247 126.43243 38 ft 0 kts 70°